,,Stat5,,Stat1,,Stat2,,Stat3,,Stat4,,Wind1,,Wind1,
time,status,PA1M_AVG,status,PR1M_SUM,status,RH1M_AVG,status,SR1M_AVG,status,TA1M_AVG,status,W1dAve1m,status,W1sAve1m,
2001-01-23, 00:00:00,VALID,916.815,VALID,0,VALID,98.707,VALID,-0.0169808,VALID,19.2545,VALID,229,VALID,0.530405,
2001-01-23, 00:01:00,VALID,916.815,VALID,0,VALID,98.7261,VALID,-0.0169808,VALID,19.2713,VALID,229,VALID,0.73125,
2001-01-23, 00:02:00,VALID,916.799,VALID,0,VALID,98.7185,VALID,-0.0339617,VALID,19.2619,VALID,225,VALID,0.606771,
2001-01-23, 00:03:00,VALID,916.8,VALID,0,VALID,98.7147,VALID,0,VALID,19.2455,VALID,225,VALID,0.820518,
2001-01-23, 00:04:00,VALID,916.797,VALID,0,VALID,98.7325,VALID,-0.0679233,VALID,19.2298,VALID,234,VALID,0.605357,
2001-01-23, 00:05:00,VALID,916.779,VALID,0,VALID,98.7655,VALID,-0.0679233,VALID,19.2199,VALID,234,VALID,0.301471,
2001-01-23, 00:06:00,VALID,916.767,VALID,0,VALID,98.824,VALID,-0.0509425,VALID,19.2264,VALID,227,VALID,0.891447,
2001-01-23, 00:07:00,VALID,916.771,VALID,0,VALID,98.8202,VALID,-0.0339617,VALID,19.2425,VALID,224,VALID,0.631473,
2001-01-23, 00:08:00,VALID,916.77,VALID,0,VALID,98.8075,VALID,-0.0849042,VALID,19.2427,VALID,220,VALID,0.753906,
2001-01-23, 00:09:00,VALID,916.763,VALID,0,VALID,98.796,VALID,-0.0679233,VALID,19.2462,VALID,235,VALID,0.918497,
2001-01-23, 00:10:00,VALID,916.768,VALID,0,VALID,98.7884,VALID,-0.0509425,VALID,19.2621,VALID,229,VALID,0.816934,
2001-01-23, 00:11:00,VALID,916.765,VALID,0,VALID,98.763,VALID,-0.0169808,VALID,19.2681,VALID,223,VALID,0.62546,
2001-01-23, 00:12:00,VALID,916.776,VALID,0,VALID,98.7388,VALID,-0.0339617,VALID,19.2681,VALID,230,VALID,0.546074,
2001-01-23, 00:13:00,VALID,916.774,VALID,0,VALID,98.721,VALID,-0.0679233,VALID,19.2783,VALID,276,VALID,0.468099,
2001-01-23, 00:14:00,VALID,916.775,VALID,0,VALID,98.7019,VALID,-0.0849042,VALID,19.2748,VALID,250,VALID,0.574678,
2001-01-23, 00:15:00,VALID,916.759,VALID,0,VALID,98.6791,VALID,-0.0679233,VALID,19.2651,VALID,247,VALID,0.46441,
2001-01-23, 00:16:00,VALID,916.755,VALID,0,VALID,98.646,VALID,-0.0169808,VALID,19.2323,VALID,246,VALID,0.608724,
2001-01-23, 00:17:00,VALID,916.741,VALID,0,VALID,98.6473,VALID,-0.0169808,VALID,19.2328,VALID,250,VALID,0.572381,
2001-01-23, 00:18:00,VALID,916.739,VALID,0,VALID,98.6905,VALID,-0.0169808,VALID,19.2427,VALID,256,VALID,0.315878,
2001-01-23, 00:19:00,VALID,916.726,VALID,0,VALID,98.6969,VALID,-0.0339617,VALID,19.2226,VALID,240,VALID,0.307366,
2001-01-23, 00:20:00,VALID,916.712,VALID,0,VALID,98.7197,VALID,-0.0339617,VALID,19.2301,VALID,255,VALID,0.499763,
2001-01-23, 00:21:00,VALID,916.71,VALID,0,VALID,98.7401,VALID,-0.0679233,VALID,19.2328,VALID,247,VALID,0.619299,
2001-01-23, 00:22:00,VALID,916.702,VALID,0,VALID,98.7223,VALID,-0.0509425,VALID,19.2171,VALID,234,VALID,0.672508,
2001-01-23, 00:23:00,VALID,916.71,VALID,0,VALID,98.8126,VALID,-0.0849042,VALID,19.239,VALID,245,VALID,0.980824,
2001-01-23, 00:24:00,VALID,916.72,VALID,0,VALID,98.8278,VALID,-0.0339617,VALID,19.2554,VALID,257,VALID,0.694661,
2001-01-23, 00:25:00,VALID,916.714,VALID,0,VALID,98.81,VALID,-0.0509425,VALID,19.2557,VALID,239,VALID,0.759549,
2001-01-23, 00:26:00,VALID,916.706,VALID,0,VALID,98.7859,VALID,-0.0679233,VALID,19.2356,VALID,241,VALID,0.689338,
2001-01-23, 00:27:00,VALID,916.697,VALID,0,VALID,98.8266,VALID,-0.0509425,VALID,19.249,VALID,246,VALID,1.02555,
2001-01-23, 00:28:00,VALID,916.691,VALID,0,VALID,98.8774,VALID,-0.0339617,VALID,19.2815,VALID,255,VALID,0.718973,
2001-01-23, 00:29:00,VALID,916.7,VALID,0,VALID,98.9003,VALID,-0.0679233,VALID,19.3099,VALID,268,VALID,0.505445,
2001-01-23, 00:30:00,VALID,916.681,VALID,0,VALID,98.8978,VALID,-0.0169808,VALID,19.3422,VALID,250,VALID,0.0846706,
2001-01-23, 00:31:00,VALID,916.665,VALID,0,VALID,98.8901,VALID,-0.0509425,VALID,19.3489,VALID,241,VALID,0.308488,
2001-01-23, 00:32:00,VALID,916.654,VALID,0,VALID,98.8584,VALID,-0.0339617,VALID,19.3523,VALID,230,VALID,0.378551,
2001-01-23, 00:33:00,VALID,916.633,VALID,0,VALID,98.8673,VALID,-0.0169808,VALID,19.3422,VALID,208,VALID,0.86046,
2001-01-23, 00:34:00,VALID,916.618,VALID,0,VALID,98.8609,VALID,-0.0339617,VALID,19.3618,VALID,239,VALID,0.791884,
2001-01-23, 00:35:00,VALID,916.601,VALID,0,VALID,98.8342,VALID,-0.101885,VALID,19.3784,VALID,212,VALID,0.779871,
2001-01-23, 00:36:00,VALID,916.587,VALID,0,VALID,98.7541,VALID,0,VALID,19.3389,VALID,213,VALID,0.502323,
2001-01-23, 00:37:00,VALID,916.582,VALID,0,VALID,98.6791,VALID,-0.0679233,VALID,19.3034,VALID,166,VALID,0.397098,
2001-01-23, 00:38:00,VALID,916.579,VALID,0,VALID,98.5646,VALID,-0.0169808,VALID,19.242,VALID,147,VALID,0.522964,
2001-01-23, 00:39:00,VALID,916.572,VALID,0,VALID,98.5659,VALID,0.0169808,VALID,19.2008,VALID,149,VALID,0.482052,
2001-01-23, 00:40:00,VALID,916.568,VALID,0,VALID,98.5939,VALID,-0.0339617,VALID,19.1777,VALID,144,VALID,0.253801,
2001-01-23, 00:41:00,VALID,916.557,VALID,0,VALID,98.5633,VALID,-0.0339617,VALID,19.1486,VALID,144,VALID,0.0622633,
2001-01-23, 00:42:00,VALID,916.554,VALID,0,VALID,98.5494,VALID,-0.0679233,VALID,19.1262,VALID,141,VALID,0.355469,
2001-01-23, 00:43:00,VALID,916.537,VALID,0,VALID,98.5366,VALID,-0.0339617,VALID,19.1006,VALID,117,VALID,0.131944,
2001-01-23, 00:44:00,VALID,916.527,VALID,0,VALID,98.4845,VALID,-0.0679233,VALID,19.0485,VALID,150,VALID,0.0836397,
2001-01-23, 00:45:00,VALID,916.516,VALID,0,VALID,98.7032,VALID,-0.0169808,VALID,19.0517,VALID,211,VALID,0.84565,
2001-01-23, 00:46:00,VALID,916.504,VALID,0,VALID,98.8825,VALID,-0.0339617,VALID,19.1523,VALID,215,VALID,1.30313,
2001-01-23, 00:47:00,VALID,916.488,VALID,0,VALID,98.9219,VALID,-0.0169808,VALID,19.2261,VALID,203,VALID,0.982008,
2001-01-23, 00:48:00,VALID,916.486,VALID,0,VALID,98.9067,VALID,0,VALID,19.2552,VALID,236,VALID,1.3372,
2001-01-23, 00:49:00,VALID,916.467,VALID,0,VALID,98.9423,VALID,-0.0509425,VALID,19.3036,VALID,204,VALID,1.21727,
2001-01-23, 00:50:00,VALID,916.457,VALID,0,VALID,98.8024,VALID,-0.0509425,VALID,19.3141,VALID,187,VALID,0.735322,
2001-01-23, 00:51:00,VALID,916.456,VALID,0,VALID,98.7426,VALID,-0.0169808,VALID,19.2716,VALID,193,VALID,0.785373,
2001-01-23, 00:52:00,VALID,916.449,VALID,0,VALID,98.7643,VALID,-0.0169808,VALID,19.278,VALID,202,VALID,0.997396,
2001-01-23, 00:53:00,VALID,916.452,VALID,0,VALID,98.7948,VALID,-0.0169808,VALID,19.2981,VALID,219,VALID,1.05239,
2001-01-23, 00:54:00,VALID,916.439,VALID,0,VALID,98.8113,VALID,-0.0509425,VALID,19.3106,VALID,198,VALID,0.995566,
2001-01-23, 00:55:00,VALID,916.417,VALID,0,VALID,98.7846,VALID,-0.0509425,VALID,19.3103,VALID,184,VALID,0.704018,
2001-01-23, 00:56:00,VALID,916.395,VALID,0,VALID,98.5939,VALID,-0.0339617,VALID,19.2326,VALID,173,VALID,0.440578,
2001-01-23, 00:57:00,VALID,916.378,VALID,0,VALID,98.6218,VALID,-0.0169808,VALID,19.1744,VALID,184,VALID,0.554476,
2001-01-23, 00:58:00,VALID,916.367,VALID,0,VALID,98.5621,VALID,-0.0339617,VALID,19.1294,VALID,180,VALID,0.682432,
2001-01-23, 00:59:00,VALID,916.363,VALID,0,VALID,98.6167,VALID,0,VALID,19.1193,VALID,181,VALID,0.464015,
2001-01-23, 01:00:00,VALID,916.345,VALID,0,VALID,98.4934,VALID,0,VALID,19.0547,VALID,168,VALID,0.353082,
2001-01-23, 01:01:00,VALID,916.346,VALID,0,VALID,98.5417,VALID,-0.0509425,VALID,19.0259,VALID,169,VALID,0.0555556,
2001-01-23, 01:02:00,VALID,916.331,VALID,0,VALID,98.3828,VALID,0,VALID,18.9486,VALID,145,VALID,0,
2001-01-23, 01:03:00,VALID,916.316,VALID,0,VALID,98.3993,VALID,-0.0169808,VALID,18.8999,VALID,147,VALID,0,
2001-01-23, 01:04:00,VALID,916.293,VALID,0,VALID,98.4425,VALID,-0.0169808,VALID,18.8775,VALID,151,VALID,0,
2001-01-23, 01:05:00,VALID,916.276,VALID,0,VALID,98.4959,VALID,-0.0509425,VALID,18.8713,VALID,152,VALID,0,
2001-01-23, 01:06:00,VALID,916.254,VALID,0,VALID,98.5583,VALID,-0.0339617,VALID,18.8581,VALID,155,VALID,0.486698,
2001-01-23, 01:07:00,VALID,916.245,VALID,0,VALID,98.6435,VALID,-0.0169808,VALID,18.8807,VALID,147,VALID,0.575169,
2001-01-23, 01:08:00,VALID,916.234,VALID,0,VALID,98.693,VALID,-0.0169808,VALID,18.8909,VALID,148,VALID,0.574574,
2001-01-23, 01:09:00,VALID,916.249,VALID,0,VALID,98.7287,VALID,-0.0849042,VALID,18.9103,VALID,146,VALID,0.493707,
2001-01-23, 01:10:00,VALID,916.25,VALID,0,VALID,98.81,VALID,-0.0849042,VALID,18.9264,VALID,176,VALID,0.421007,
2001-01-23, 01:11:00,VALID,916.259,VALID,0,VALID,98.9397,VALID,-0.0339617,VALID,18.9846,VALID,192,VALID,0.850643,
2001-01-23, 01:12:00,VALID,916.273,VALID,0,VALID,98.9652,VALID,-0.0169808,VALID,19.0492,VALID,204,VALID,0.78484,
2001-01-23, 01:13:00,VALID,916.264,VALID,0,VALID,98.955,VALID,-0.0849042,VALID,19.0686,VALID,210,VALID,0.943304,
2001-01-23, 01:14:00,VALID,916.26,VALID,0,VALID,98.9881,VALID,-0.0849042,VALID,19.0974,VALID,218,VALID,0.853456,
2001-01-23, 01:15:00,VALID,916.254,VALID,0,VALID,98.9931,VALID,-0.0169808,VALID,19.1004,VALID,219,VALID,0.740287,
2001-01-23, 01:16:00,VALID,916.25,VALID,0,VALID,98.9804,VALID,-0.0679233,VALID,19.123,VALID,211,VALID,0.908995,
2001-01-23, 01:17:00,VALID,916.226,VALID,0,VALID,98.9931,VALID,-0.0849042,VALID,19.1332,VALID,202,VALID,0.856534,
2001-01-23, 01:18:00,VALID,916.222,VALID,0,VALID,99.0427,VALID,-0.0339617,VALID,19.1627,VALID,199,VALID,0.811198,
2001-01-23, 01:19:00,VALID,916.204,VALID,0,VALID,99.0211,VALID,-0.0169808,VALID,19.1618,VALID,198,VALID,0.673828,
2001-01-23, 01:20:00,VALID,916.187,VALID,0,VALID,99.0097,VALID,-0.0509425,VALID,19.1625,VALID,207,VALID,0.669807,
2001-01-23, 01:21:00,VALID,916.199,VALID,0,VALID,99.0351,VALID,-0.0679233,VALID,19.1685,VALID,187,VALID,1.00992,
2001-01-23, 01:22:00,VALID,916.202,VALID,0,VALID,99.03,VALID,-0.0339617,VALID,19.1918,VALID,181,VALID,0.741071,
2001-01-23, 01:23:00,VALID,916.22,VALID,0,VALID,99.0148,VALID,-0.0509425,VALID,19.1592,VALID,159,VALID,0.915009,
2001-01-23, 01:24:00,VALID,916.25,VALID,0,VALID,98.9766,VALID,-0.0509425,VALID,19.1076,VALID,156,VALID,0.524916,
2001-01-23, 01:25:00,VALID,916.275,VALID,0,VALID,98.9995,VALID,-0.0679233,VALID,19.1009,VALID,163,VALID,0.483742,
2001-01-23, 01:26:00,VALID,916.304,VALID,0,VALID,99.0377,VALID,-0.0339617,VALID,19.1106,VALID,193,VALID,0.604877,
2001-01-23, 01:27:00,VALID,916.311,VALID,0,VALID,99.0707,VALID,-0.0169808,VALID,19.1327,VALID,193,VALID,0.766927,
2001-01-23, 01:28:00,VALID,916.303,VALID,0,VALID,99.0631,VALID,-0.0509425,VALID,19.159,VALID,179,VALID,0.610677,
2001-01-23, 01:29:00,VALID,916.295,VALID,0,VALID,99.0313,VALID,-0.0169808,VALID,19.1493,VALID,166,VALID,0.528263,
2001-01-23, 01:30:00,VALID,916.292,VALID,0,VALID,98.9982,VALID,0,VALID,19.1135,VALID,154,VALID,0.509713,
2001-01-23, 01:31:00,VALID,916.295,VALID,0,VALID,98.9741,VALID,0,VALID,19.0775,VALID,155,VALID,0.61317,
2001-01-23, 01:32:00,VALID,916.282,VALID,0,VALID,98.955,VALID,-0.0169808,VALID,19.0351,VALID,141,VALID,0.627131,
2001-01-23, 01:33:00,VALID,916.277,VALID,0,VALID,98.8762,VALID,0,VALID,18.9456,VALID,88,VALID,0.898026,
2001-01-23, 01:34:00,VALID,916.286,VALID,0,VALID,98.8673,VALID,-0.0169808,VALID,18.9232,VALID,82,VALID,1.11465,
2001-01-23, 01:35:00,VALID,916.271,VALID,0,VALID,98.8698,VALID,-0.0169808,VALID,18.8971,VALID,86,VALID,0.910038,
2001-01-23, 01:36:00,VALID,916.26,VALID,0,VALID,98.8876,VALID,0,VALID,18.8683,VALID,95,VALID,0.569878,
2001-01-23, 01:37:00,VALID,916.256,VALID,0,VALID,98.9105,VALID,-0.0169808,VALID,18.8522,VALID,74,VALID,0.385417,
2001-01-23, 01:38:00,VALID,916.264,VALID,0,VALID,98.9308,VALID,-0.0169808,VALID,18.8455,VALID,62,VALID,0.542279,
2001-01-23, 01:39:00,VALID,916.267,VALID,0,VALID,98.9372,VALID,0,VALID,18.8196,VALID,51,VALID,0.681377,
2001-01-23, 01:40:00,VALID,916.273,VALID,0,VALID,98.969,VALID,-0.0169808,VALID,18.8099,VALID,73,VALID,0.213393,
2001-01-23, 01:41:00,VALID,916.264,VALID,0,VALID,98.969,VALID,0,VALID,18.797,VALID,101,VALID,0,
2001-01-23, 01:42:00,VALID,916.247,VALID,0,VALID,98.9194,VALID,-0.0509425,VALID,18.7356,VALID,107,VALID,0,
2001-01-23, 01:43:00,VALID,916.226,VALID,0,VALID,98.9105,VALID,-0.0339617,VALID,18.7075,VALID,123,VALID,0,
2001-01-23, 01:44:00,VALID,916.215,VALID,0,VALID,98.9181,VALID,0,VALID,18.6711,VALID,123,VALID,0,
2001-01-23, 01:45:00,VALID,916.208,VALID,0,VALID,98.9385,VALID,-0.0339617,VALID,18.6489,VALID,123,VALID,0,
2001-01-23, 01:46:00,VALID,916.215,VALID,0,VALID,98.9346,VALID,-0.0169808,VALID,18.6231,VALID,123,VALID,0,
2001-01-23, 01:47:00,VALID,916.219,VALID,0,VALID,98.9168,VALID,-0.0339617,VALID,18.5779,VALID,122,VALID,0,
2001-01-23, 01:48:00,VALID,916.204,VALID,0,VALID,98.8901,VALID,0,VALID,18.5186,VALID,122,VALID,0,
2001-01-23, 01:49:00,VALID,916.205,VALID,0,VALID,98.9016,VALID,-0.0169808,VALID,18.4835,VALID,122,VALID,0,
2001-01-23, 01:50:00,VALID,916.192,VALID,0,VALID,98.9334,VALID,0,VALID,18.4708,VALID,123,VALID,0,
2001-01-23, 01:51:00,VALID,916.168,VALID,0,VALID,98.9982,VALID,0,VALID,18.4937,VALID,136,VALID,0,
2001-01-23, 01:52:00,VALID,916.137,VALID,0,VALID,99.0008,VALID,0,VALID,18.4805,VALID,149,VALID,0,
2001-01-23, 01:53:00,VALID,916.113,VALID,0,VALID,98.9919,VALID,0,VALID,18.4581,VALID,149,VALID,0,
2001-01-23, 01:54:00,VALID,916.085,VALID,0,VALID,98.9817,VALID,-0.0339617,VALID,18.4291,VALID,152,VALID,0,
2001-01-23, 01:55:00,VALID,916.054,VALID,0,VALID,99.0211,VALID,-0.0509425,VALID,18.4127,VALID,167,VALID,0,
2001-01-23, 01:56:00,VALID,916.032,VALID,0,VALID,99.0669,VALID,0,VALID,18.4196,VALID,173,VALID,0,
2001-01-23, 01:57:00,VALID,916.008,VALID,0,VALID,99.0936,VALID,0,VALID,18.4222,VALID,183,VALID,0,
2001-01-23, 01:58:00,VALID,915.998,VALID,0,VALID,99.086,VALID,-0.0339617,VALID,18.4293,VALID,190,VALID,0,
2001-01-23, 01:59:00,VALID,915.972,VALID,0,VALID,99.1394,VALID,0,VALID,18.4258,VALID,190,VALID,0,
2001-01-23, 02:00:00,VALID,915.945,VALID,0,VALID,99.1801,VALID,0,VALID,18.4681,VALID,184,VALID,0,
2001-01-23, 02:01:00,VALID,915.935,VALID,0,VALID,99.161,VALID,0,VALID,18.4711,VALID,178,VALID,0,
2001-01-23, 02:02:00,VALID,915.928,VALID,0,VALID,99.1292,VALID,0,VALID,18.4519,VALID,183,VALID,0,
2001-01-23, 02:03:00,VALID,915.909,VALID,0,VALID,99.1012,VALID,-0.0169808,VALID,18.4164,VALID,187,VALID,0,
2001-01-23, 02:04:00,VALID,915.901,VALID,0,VALID,99.1915,VALID,0,VALID,18.4159,VALID,188,VALID,0,
2001-01-23, 02:05:00,VALID,915.902,VALID,0,VALID,99.236,VALID,0,VALID,18.4748,VALID,196,VALID,1.08571,
2001-01-23, 02:06:00,VALID,915.88,VALID,0,VALID,99.2691,VALID,-0.0679233,VALID,18.5043,VALID,206,VALID,1.00507,
2001-01-23, 02:07:00,VALID,915.862,VALID,0,VALID,99.2462,VALID,-0.0849042,VALID,18.5004,VALID,217,VALID,0.802679,
2001-01-23, 02:08:00,VALID,915.862,VALID,0,VALID,99.2386,VALID,-0.0849042,VALID,18.4844,VALID,229,VALID,1.14607,
2001-01-23, 02:09:00,VALID,915.854,VALID,0,VALID,99.2691,VALID,-0.0679233,VALID,18.5073,VALID,222,VALID,1.32517,
2001-01-23, 02:10:00,VALID,915.841,VALID,0,VALID,99.2831,VALID,-0.0509425,VALID,18.5197,VALID,217,VALID,1.17948,
2001-01-23, 02:11:00,VALID,915.82,VALID,0,VALID,99.25,VALID,-0.0849042,VALID,18.5264,VALID,215,VALID,1.03835,
2001-01-23, 02:12:00,VALID,915.812,VALID,0,VALID,99.2271,VALID,-0.0509425,VALID,18.5038,VALID,220,VALID,0.804253,
2001-01-23, 02:13:00,VALID,915.813,VALID,0,VALID,99.2055,VALID,-0.0849042,VALID,18.4614,VALID,218,VALID,0.370443,
2001-01-23, 02:14:00,VALID,915.816,VALID,0,VALID,99.2335,VALID,-0.0679233,VALID,18.4524,VALID,203,VALID,0.284007,
2001-01-23, 02:15:00,VALID,915.819,VALID,0,VALID,99.2805,VALID,-0.0339617,VALID,18.4588,VALID,189,VALID,0.549409,
2001-01-23, 02:16:00,VALID,915.794,VALID,0,VALID,99.2843,VALID,-0.0339617,VALID,18.4778,VALID,178,VALID,0.557366,
2001-01-23, 02:17:00,VALID,915.772,VALID,0,VALID,99.2805,VALID,-0.0339617,VALID,18.4685,VALID,177,VALID,0.532434,
2001-01-23, 02:18:00,VALID,915.758,VALID,0,VALID,99.3212,VALID,-0.0339617,VALID,18.4842,VALID,177,VALID,0.466216,
2001-01-23, 02:19:00,VALID,915.749,VALID,0,VALID,99.3174,VALID,-0.0339617,VALID,18.4911,VALID,185,VALID,0.527027,
2001-01-23, 02:20:00,VALID,915.744,VALID,0,VALID,99.311,VALID,-0.0849042,VALID,18.4851,VALID,208,VALID,0.60393,
2001-01-23, 02:21:00,VALID,915.728,VALID,0,VALID,99.3365,VALID,0,VALID,18.4872,VALID,196,VALID,0.767578,
2001-01-23, 02:22:00,VALID,915.719,VALID,0,VALID,99.339,VALID,0.0509425,VALID,18.4957,VALID,179,VALID,0.695747,
2001-01-23, 02:23:00,VALID,915.689,VALID,0,VALID,99.2793,VALID,0.0339617,VALID,18.4321,VALID,153,VALID,0.60386,
2001-01-23, 02:24:00,VALID,915.682,VALID,0,VALID,99.2602,VALID,0.0169808,VALID,18.3472,VALID,146,VALID,0.782517,
2001-01-23, 02:25:00,VALID,915.657,VALID,0,VALID,99.2754,VALID,0.0509425,VALID,18.3384,VALID,141,VALID,0.578125,
2001-01-23, 02:26:00,VALID,915.638,VALID,0,VALID,99.2169,VALID,0.0169808,VALID,18.2316,VALID,131,VALID,0.330019,
2001-01-23, 02:27:00,VALID,915.625,VALID,0,VALID,99.2716,VALID,0.0339617,VALID,18.2118,VALID,131,VALID,0.046875,
2001-01-23, 02:28:00,VALID,915.607,VALID,0,VALID,99.3034,VALID,0.0169808,VALID,18.2346,VALID,131,VALID,0,
2001-01-23, 02:29:00,VALID,915.583,VALID,0,VALID,99.3225,VALID,0.0339617,VALID,18.2512,VALID,131,VALID,0,
2001-01-23, 02:30:00,VALID,915.561,VALID,0,VALID,99.367,VALID,0,VALID,18.2637,VALID,132,VALID,0,
2001-01-23, 02:31:00,VALID,915.545,VALID,0,VALID,99.3873,VALID,0.0339617,VALID,18.3057,VALID,148,VALID,0,
2001-01-23, 02:32:00,VALID,915.517,VALID,0,VALID,99.3581,VALID,0.0169808,VALID,18.2928,VALID,150,VALID,0.371553,
2001-01-23, 02:33:00,VALID,915.523,VALID,0,VALID,99.3772,VALID,0,VALID,18.299,VALID,155,VALID,0.65076,
2001-01-23, 02:34:00,VALID,915.509,VALID,0,VALID,99.3479,VALID,0.0169808,VALID,18.2729,VALID,155,VALID,0.721875,
2001-01-23, 02:35:00,VALID,915.491,VALID,0,VALID,99.409,VALID,0.0169808,VALID,18.2667,VALID,157,VALID,0.835464,
2001-01-23, 02:36:00,VALID,915.481,VALID,0,VALID,99.5209,VALID,0.0509425,VALID,18.3894,VALID,163,VALID,0.944468,
2001-01-23, 02:37:00,VALID,915.473,VALID,0,VALID,99.5158,VALID,0.0339617,VALID,18.4902,VALID,181,VALID,0.898649,
2001-01-23, 02:38:00,VALID,915.47,VALID,0,VALID,99.4916,VALID,0.0169808,VALID,18.4962,VALID,204,VALID,0.734375,
2001-01-23, 02:39:00,VALID,915.467,VALID,0,VALID,99.4764,VALID,0.0509425,VALID,18.5029,VALID,213,VALID,0.842014,
2001-01-23, 02:40:00,VALID,915.475,VALID,0,VALID,99.428,VALID,0.0169808,VALID,18.4671,VALID,221,VALID,1.07747,
2001-01-23, 02:41:00,VALID,915.485,VALID,0,VALID,99.4255,VALID,0.0339617,VALID,18.4152,VALID,227,VALID,1.07767,
2001-01-23, 02:42:00,VALID,915.488,VALID,0,VALID,99.4128,VALID,0.0169808,VALID,18.3993,VALID,221,VALID,1.10726,
2001-01-23, 02:43:00,VALID,915.494,VALID,0,VALID,99.428,VALID,0.0339617,VALID,18.3963,VALID,218,VALID,1.27411,
2001-01-23, 02:44:00,VALID,915.495,VALID,0,VALID,99.4242,VALID,0,VALID,18.3799,VALID,217,VALID,1.31297,
2001-01-23, 02:45:00,VALID,915.481,VALID,0,VALID,99.4344,VALID,0.0339617,VALID,18.3735,VALID,220,VALID,1.34143,
2001-01-23, 02:46:00,VALID,915.479,VALID,0,VALID,99.428,VALID,0.0509425,VALID,18.3636,VALID,221,VALID,1.34882,
2001-01-23, 02:47:00,VALID,915.464,VALID,0,VALID,99.4433,VALID,0.0339617,VALID,18.3571,VALID,215,VALID,1.33475,
2001-01-23, 02:48:00,VALID,915.441,VALID,0,VALID,99.4547,VALID,0.0169808,VALID,18.3675,VALID,220,VALID,1.00738,
2001-01-23, 02:49:00,VALID,915.429,VALID,0,VALID,99.4764,VALID,0,VALID,18.3772,VALID,215,VALID,0.91645,
2001-01-23, 02:50:00,VALID,915.402,VALID,0,VALID,99.4738,VALID,0.0339617,VALID,18.3795,VALID,209,VALID,0.55239,
2001-01-23, 02:51:00,VALID,915.36,VALID,0,VALID,99.5323,VALID,0.0169808,VALID,18.4351,VALID,190,VALID,1.16322,
2001-01-23, 02:52:00,VALID,915.339,VALID,0,VALID,99.5374,VALID,0.0339617,VALID,18.4872,VALID,187,VALID,1.29576,
2001-01-23, 02:53:00,VALID,915.321,VALID,0,VALID,99.5298,VALID,0.0169808,VALID,18.5153,VALID,182,VALID,1.21449,
2001-01-23, 02:54:00,VALID,915.311,VALID,0,VALID,99.5285,VALID,0.0509425,VALID,18.5419,VALID,188,VALID,0.960093,
2001-01-23, 02:55:00,VALID,915.309,VALID,0,VALID,99.5132,VALID,0,VALID,18.5223,VALID,198,VALID,0.79962,
2001-01-23, 02:56:00,VALID,915.306,VALID,0,VALID,99.5209,VALID,0.0169808,VALID,18.519,VALID,215,VALID,0.744555,
2001-01-23, 02:57:00,VALID,915.31,VALID,0,VALID,99.5361,VALID,0.0339617,VALID,18.522,VALID,217,VALID,0.547092,
2001-01-23, 02:58:00,VALID,915.317,VALID,0,VALID,99.5616,VALID,0.0169808,VALID,18.5583,VALID,221,VALID,0.619141,
2001-01-23, 02:59:00,VALID,915.352,VALID,0,VALID,99.559,VALID,0.0679233,VALID,18.5834,VALID,197,VALID,0.357996,
2001-01-23, 03:00:00,VALID,915.358,VALID,0,VALID,99.5336,VALID,0,VALID,18.5869,VALID,183,VALID,0.378167,
2001-01-23, 03:01:00,VALID,915.356,VALID,0,VALID,99.5259,VALID,0,VALID,18.5449,VALID,166,VALID,0.575,
2001-01-23, 03:02:00,VALID,915.344,VALID,0,VALID,99.5704,VALID,0.0169808,VALID,18.5645,VALID,172,VALID,0.666667,
2001-01-23, 03:03:00,VALID,915.315,VALID,0,VALID,99.5794,VALID,0,VALID,18.6127,VALID,185,VALID,0.894003,
2001-01-23, 03:04:00,VALID,915.29,VALID,0,VALID,99.5946,VALID,0.0169808,VALID,18.6713,VALID,183,VALID,0.978463,
2001-01-23, 03:05:00,VALID,915.253,VALID,0,VALID,99.5908,VALID,0,VALID,18.7031,VALID,172,VALID,0.834754,
2001-01-23, 03:06:00,VALID,915.238,VALID,0,VALID,99.5666,VALID,0,VALID,18.7068,VALID,177,VALID,0.751302,
2001-01-23, 03:07:00,VALID,915.233,VALID,0,VALID,99.5514,VALID,0.0339617,VALID,18.6874,VALID,184,VALID,0.885417,
2001-01-23, 03:08:00,VALID,915.213,VALID,0,VALID,99.5425,VALID,0.0509425,VALID,18.681,VALID,196,VALID,0.745864,
2001-01-23, 03:09:00,VALID,915.202,VALID,0,VALID,99.531,VALID,0.0509425,VALID,18.6517,VALID,194,VALID,0.345017,
2001-01-23, 03:10:00,VALID,915.204,VALID,0,VALID,99.5209,VALID,0.0509425,VALID,18.6392,VALID,197,VALID,0.801562,
2001-01-23, 03:11:00,VALID,915.207,VALID,0,VALID,99.5145,VALID,0.0679233,VALID,18.5933,VALID,197,VALID,0.83286,
2001-01-23, 03:12:00,VALID,915.181,VALID,0,VALID,99.5158,VALID,0.0509425,VALID,18.5772,VALID,202,VALID,0.686655,
2001-01-23, 03:13:00,VALID,915.19,VALID,0,VALID,99.5056,VALID,0.0339617,VALID,18.5578,VALID,205,VALID,0.61951,
2001-01-23, 03:14:00,VALID,915.178,VALID,0,VALID,99.4789,VALID,0.0679233,VALID,18.5322,VALID,213,VALID,0.450047,
2001-01-23, 03:15:00,VALID,915.161,VALID,0,VALID,99.4814,VALID,0.0679233,VALID,18.493,VALID,197,VALID,0.879774,
2001-01-23, 03:16:00,VALID,915.152,VALID,0,VALID,99.4649,VALID,0.0679233,VALID,18.4644,VALID,188,VALID,0.928168,
2001-01-23, 03:17:00,VALID,915.159,VALID,0,VALID,99.4535,VALID,0.0339617,VALID,18.4252,VALID,185,VALID,0.76034,
2001-01-23, 03:18:00,VALID,915.158,VALID,0,VALID,99.4318,VALID,0.0679233,VALID,18.3608,VALID,191,VALID,0.778927,
2001-01-23, 03:19:00,VALID,915.139,VALID,0,VALID,99.4509,VALID,0.0849042,VALID,18.3216,VALID,181,VALID,0.698661,
2001-01-23, 03:20:00,VALID,915.131,VALID,0,VALID,99.4891,VALID,0.0339617,VALID,18.3059,VALID,179,VALID,0.673769,
2001-01-23, 03:21:00,VALID,915.104,VALID,0,VALID,99.5005,VALID,0.0509425,VALID,18.2835,VALID,173,VALID,0.760769,
2001-01-23, 03:22:00,VALID,915.083,VALID,0,VALID,99.5196,VALID,0.0849042,VALID,18.3024,VALID,169,VALID,0.805321,
2001-01-23, 03:23:00,VALID,915.068,VALID,0,VALID,99.5196,VALID,0.0509425,VALID,18.2736,VALID,162,VALID,0.803504,
2001-01-23, 03:24:00,VALID,915.025,VALID,0,VALID,99.5514,VALID,0.0849042,VALID,18.2925,VALID,166,VALID,0.913845,
2001-01-23, 03:25:00,VALID,915.001,VALID,0,VALID,99.5565,VALID,0.0849042,VALID,18.2893,VALID,173,VALID,0.801215,
2001-01-23, 03:26:00,VALID,914.962,VALID,0,VALID,99.5666,VALID,0.0679233,VALID,18.3024,VALID,169,VALID,0.697381,
2001-01-23, 03:27:00,VALID,914.937,VALID,0,VALID,99.573,VALID,0.0509425,VALID,18.3188,VALID,173,VALID,0.589316,
2001-01-23, 03:28:00,VALID,914.922,VALID,0,VALID,99.5628,VALID,0.0849042,VALID,18.3059,VALID,161,VALID,0.430134,
2001-01-23, 03:29:00,VALID,914.92,VALID,0,VALID,99.5577,VALID,0.0679233,VALID,18.2925,VALID,161,VALID,0.376657,
2001-01-23, 03:30:00,VALID,914.914,VALID,0,VALID,99.5158,VALID,0.0509425,VALID,18.2406,VALID,161,VALID,0.317145,
2001-01-23, 03:31:00,VALID,914.922,VALID,0,VALID,99.4764,VALID,0.0679233,VALID,18.1576,VALID,167,VALID,0.43391,
2001-01-23, 03:32:00,VALID,914.914,VALID,0,VALID,99.5336,VALID,0.0169808,VALID,18.1348,VALID,171,VALID,0.495739,